Temp
61 61 62 62 62 62 62 62 62 61 62 62 62 62 62 62 63 66 59 62 65 67 65 67 67 67 68 66 66 66 61 58 57 55 60 61 61 65 66 65 67 70 70 72 71
61 61 61 61 61 61 62 62 61 61 61 61 62 62 62 62 64 61 65 66 66 66 65 64 63 65 66 63 65 64 59 60 61 62 60 60 59 62 62 63 65 67 72 68 70
60 60 60 61 61 61 61 61 61 61 61 61 61 62 62 63 61 59 65 65 66 65 64 64 64 64 61 63 61 59 59 58 59 60 59 58 57 62 60 60 66 67 69 67 67
59 59 59 60 60 61 61 61 61 61 61 61 61 62 61 63 55 62 64 64 64 66 65 63 63 61 59 57 58 55 57 57 57 56 55 55 58 57 60 64 66 68 65 64 66
59 59 59 59 59 60 60 61 61 61 61 61 61 61 64 61 57 66 62 63 66 64 60 60 60 59 57 56 56 55 56 55 57 55 55 56 54 56 58 65 66 63 62 64 65
59 58 58 59 59 60 60 60 60 60 60 61 61 61 62 56 63 65 63 63 63 63 59 60 57 57 56 54 54 53 53 55 55 55 55 50 55 51 60 59 58 59 62 64 63
59 58 58 58 59 59 60 60 60 60 60 60 61 61 60 55 64 66 63 61 61 61 58 59 59 58 56 52 53 52 51 55 53 52 53 53 55 50 63 57 57 60 61 62 64
58 58 58 58 58 59 59 60 60 60 60 61 60 61 55 63 67 63 64 62 63 63 61 60 60 56 55 54 52 50 50 51 50 51 51 54 55 58 58 55 57 60 61 62 65
58 58 58 58 58 58 59 59 59 60 61 61 60 59 53 64 59 60 62 58 59 61 61 61 58 53 52 51 52 51 48 47 50 48 48 49 52 58 56 55 57 59 61 61 61
58 58 58 58 58 58 59 58 59 60 61 61 61 56 57 53 56 57 61 59 56 57 56 55 54 53 52 52 43 46 47 46 46 47 46 46 46 55 60 57 55 57 58 57 58
59 58 58 58 58 59 58 60 60 58 57 49 50 51 52 57 57 56 56 56 56 55 51 49 50 50 49 48 46 45 44 44 48 44 42 45 46 51 58 57 55 55 54 54 57
59 59 58 58 58 58 57 54 52 52 49 51 51 52 54 54 50 53 58 52 51 49 48 49 48 46 46 45 44 43 41 37 45 42 41 45 43 52 52 51 50 50 54 56 56
59 58 58 58 58 57 53 50 54 54 47 47 50 50 50 53 48 49 53 50 48 46 46 47 45 45 44 42 41 44 40 39 37 42 42 39 48 52 50 49 51 52 53 55 58
58 58 58 58 57 54 52 53 53 53 42 44 45 48 51 50 46 52 52 50 46 45 45 45 44 43 42 41 43 39 42 40 37 35 33 39 35 48 48 49 50 54 55 57 57
57 57 57 58 52 51 53 54 54 51 32 43 44 54 50 46 46 48 52 50 45 44 45 42 41 40 40 42 43 41 41 38 36 31 27 29 31 51 45 51 53 54 55 58 58
56 56 56 54 52 51 50 49 48 38 32 40 44 43 44 44 45 47 47 50 48 44 43 43 44 43 44 42 42 42 39 36 34 31 28 26 29 48 55 53 51 53 55 57 56
55 55 55 56 52 54 53 51 34 32 42 35 39 42 41 41 42 43 42 43 43 37 38 40 40 42 43 40 42 40 38 33 32 30 34 29 28 44 54 52 53 54 56 56 55
55 54 51 52 52 54 52 41 31 34 33 39 39 41 38 38 39 39 39 41 41 42 41 39 36 39 42 42 40 39 38 35 29 32 36 27 29 48 49 49 52 53 53 54 54
54 50 49 49 52 52 47 33 34 35 39 35 38 36 36 37 37 37 38 38 41 43 40 38 37 39 40 42 41 37 35 37 26 14 24 36 39 47 51 47 49 50 51 52 53
49 48 47 51 50 50 37 35 35 42 41 39 36 39 34 34 34 34 36 41 39 40 42 39 35 36 38 41 39 38 40 31 31 27 27 35 31 44 49 50 51 50 51 52 52
48 44 45 49 49 42 33 34 37 42 44 39 35 36 39 37 37 34 37 39 40 38 41 40 36 33 37 35 36 33 34 34 33 31 30 29 41 46 43 47 49 51 52 53 51
47 35 44 46 35 33 33 34 41 40 42 40 39 38 37 38 34 33 34 38 40 41 37 39 35 30 35 35 36 36 35 36 33 28 28 25 34 49 47 46 45 45 48 52 50
41 38 43 43 32 32 33 34 38 37 38 38 38 39 40 37 32 35 32 40 39 37 35 38 32 27 30 31 34 32 35 35 30 30 28 28 38 46 44 45 47 45 45 48 47
38 32 34 35 36 37 33 33 32 39 40 41 39 39 35 33 37 32 32 37 38 34 40 42 31 31 30 33 33 30 32 34 33 27 31 31 36 45 50 52 53 47 43 44 45
37 33 38 30 32 34 38 34 29 32 38 40 35 36 34 30 31 29 32 35 36 38 38 34 26 29 32 34 33 32 32 35 30 33 28 34 38 44 49 52 51 49 44 40 39
34 34 34 33 38 34 35 34 33 33 34 31 34 36 37 33 36 31 35 35 36 35 32 32 27 22 22 27 28 26 32 33 33 34 35 36 35 46 51 52 46 39 38 35 36
42 41 38 35 33 32 33 34 35 39 40 41 38 37 32 36 42 44 43 38 36 33 31 28 26 22 25 20 19 21 25 30 34 37 36 30 38 46 46 47 44 35 38 37 35
MSLP
1022.29 1022.14 1021.83 1021.57 1021.46 1021.20 1020.90 1020.50 1020.30 1020.15 1020.14 1019.71 1019.31 1018.85 1018.62 1018.38 1018.06 1017.70 1017.84 1018.30 1017.81 1017.29 1017.10 1016.48 1016.21 1015.84 1015.35 1015.16 1015.31 1014.92 1013.76 1012.79 1012.98 1013.44 1013.32 1014.22 1014.06 1014.12 1014.11 1013.59 1013.23 1012.88 1012.73 1012.91 1013.61
1022.31 1022.18 1021.97 1021.77 1021.57 1021.21 1020.72 1020.51 1020.50 1020.32 1020.15 1019.66 1019.22 1018.80 1018.65 1018.41 1018.01 1017.84 1018.51 1018.08 1017.59 1017.19 1016.79 1016.34 1016.08 1015.74 1015.03 1015.22 1015.30 1014.59 1014.02 1013.28 1013.92 1014.12 1014.23 1014.58 1014.71 1014.37 1014.20 1013.45 1012.92 1012.83 1012.87 1013.52 1013.71
1022.27 1022.04 1021.79 1021.50 1021.25 1021.05 1020.82 1020.66 1020.53 1020.35 1019.96 1019.51 1019.19 1018.86 1018.66 1018.27 1018.05 1018.14 1018.29 1017.78 1017.47 1017.13 1016.99 1016.66 1016.30 1015.84 1015.35 1015.51 1015.47 1015.16 1014.32 1014.70 1014.83 1015.22 1015.47 1015.27 1015.08 1014.84 1014.18 1013.17 1012.63 1012.37 1012.70 1013.53 1013.70
1022.38 1022.19 1021.93 1021.69 1021.48 1021.29 1021.03 1020.73 1020.40 1020.10 1019.77 1019.28 1018.99 1018.63 1018.22 1017.96 1018.50 1018.23 1018.32 1017.90 1017.48 1017.08 1016.76 1016.54 1016.26 1015.78 1015.65 1015.67 1016.07 1015.82 1015.44 1015.47 1015.57 1016.14 1016.25 1015.78 1015.49 1014.75 1014.06 1012.86 1013.19 1013.19 1013.51 1013.63 1013.56
1022.40 1022.14 1021.80 1021.62 1021.38 1020.99 1020.61 1020.38 1020.02 1019.79 1019.42 1019.05 1018.61 1018.24 1017.76 1017.76 1018.52 1018.55 1018.42 1017.89 1017.47 1017.19 1017.05 1016.69 1016.36 1016.08 1015.91 1016.13 1016.43 1016.19 1015.98 1016.09 1016.20 1016.43 1016.39 1016.22 1015.57 1014.95 1013.40 1013.15 1013.27 1013.63 1013.78 1013.55 1013.49
1022.30 1022.04 1021.76 1021.42 1021.09 1020.71 1020.35 1019.99 1019.71 1019.42 1019.19 1018.95 1018.62 1018.28 1018.00 1018.32 1018.88 1018.69 1018.38 1017.99 1017.86 1017.51 1017.48 1017.12 1016.85 1016.86 1016.59 1016.78 1016.78 1016.87 1016.62 1016.37 1016.40 1016.41 1016.45 1016.27 1015.21 1015.23 1012.91 1013.09 1013.33 1013.56 1013.26 1013.34 1013.29
1022.21 1022.10 1021.85 1021.51 1021.14 1020.62 1020.29 1019.86 1019.55 1019.23 1018.96 1018.81 1018.60 1018.38 1018.11 1018.90 1018.82 1018.61 1018.38 1018.45 1018.35 1018.08 1017.77 1017.92 1017.66 1017.17 1017.20 1017.27 1017.48 1017.16 1016.65 1016.14 1016.34 1016.56 1016.32 1016.15 1014.07 1013.42 1012.57 1013.22 1013.26 1013.21 1013.07 1013.11 1013.08
1022.03 1021.83 1021.58 1021.31 1020.93 1020.47 1019.91 1019.54 1019.14 1018.84 1018.59 1018.59 1018.45 1018.29 1018.40 1018.83 1018.68 1018.72 1018.50 1018.43 1018.51 1018.42 1018.27 1018.31 1018.07 1017.75 1017.55 1017.79 1017.46 1016.81 1016.61 1016.03 1016.41 1016.56 1016.69 1016.07 1013.07 1012.59 1012.72 1013.06 1012.92 1012.93 1012.80 1012.67 1012.43
1021.67 1021.45 1021.28 1020.98 1020.60 1020.17 1019.60 1019.01 1018.71 1018.53 1018.44 1018.40 1018.41 1018.27 1018.71 1018.77 1018.83 1019.19 1019.06 1018.72 1018.71 1018.55 1018.47 1018.33 1018.21 1018.21 1018.09 1017.33 1016.79 1016.42 1015.88 1016.13 1016.23 1016.95 1016.82 1016.39 1013.50 1012.51 1012.79 1012.86 1012.32 1012.38 1012.16 1012.08 1012.07
1021.47 1021.39 1021.11 1020.89 1020.41 1019.91 1019.22 1018.85 1018.63 1018.45 1018.49 1018.50 1018.55 1018.83 1018.95 1019.33 1019.41 1019.40 1019.31 1019.18 1018.82 1018.63 1018.45 1018.37 1018.29 1018.10 1017.88 1017.25 1016.48 1016.15 1016.22 1016.44 1016.76 1017.31 1017.01 1016.39 1013.93 1011.69 1012.15 1012.07 1011.70 1011.34 1011.47 1011.61 1011.59
1021.22 1021.34 1021.18 1020.88 1020.57 1020.01 1019.30 1018.93 1019.05 1018.99 1018.87 1019.59 1019.88 1019.82 1019.83 1019.73 1019.67 1019.61 1019.71 1019.40 1018.96 1018.60 1018.24 1018.61 1018.25 1017.70 1017.78 1017.96 1017.72 1017.45 1017.23 1017.06 1017.20 1017.96 1017.51 1015.75 1014.02 1011.65 1010.67 1011.41 1011.14 1010.98 1011.14 1011.27 1011.41
1021.03 1021.16 1021.18 1020.96 1020.63 1020.22 1020.01 1020.48 1021.34 1021.65 1020.54 1020.15 1020.01 1020.09 1020.17 1020.20 1019.87 1019.69 1019.78 1019.55 1018.97 1018.56 1018.74 1018.71 1018.21 1018.65 1018.70 1018.70 1018.54 1018.42 1018.20 1018.12 1017.91 1018.55 1018.38 1016.15 1013.71 1010.91 1010.83 1011.08 1011.31 1011.31 1011.14 1011.22 1011.30
1020.77 1020.96 1021.06 1021.03 1020.82 1020.78 1021.35 1021.90 1021.92 1021.75 1021.25 1020.47 1020.31 1020.29 1020.45 1020.47 1020.13 1020.06 1019.90 1019.64 1019.26 1018.94 1018.77 1018.62 1019.06 1019.29 1019.22 1019.18 1019.13 1018.89 1018.96 1019.02 1019.35 1018.93 1018.38 1017.24 1013.34 1010.77 1010.57 1010.80 1011.00 1011.17 1011.38 1011.29 1011.15
1020.60 1020.64 1020.98 1020.93 1021.06 1021.44 1021.72 1021.99 1022.11 1022.12 1021.50 1020.70 1020.41 1020.53 1020.47 1020.47 1020.46 1020.45 1020.32 1020.03 1019.65 1019.25 1019.09 1019.11 1019.61 1019.63 1019.64 1019.43 1019.51 1019.46 1019.60 1019.92 1019.95 1019.89 1019.32 1018.37 1014.88 1010.86 1010.16 1009.96 1010.08 1010.34 1010.60 1010.75 1010.87
1020.54 1020.61 1021.00 1020.96 1021.26 1021.51 1021.89 1021.94 1022.04 1022.03 1021.27 1020.66 1020.41 1020.35 1020.12 1020.39 1020.74 1020.54 1020.69 1020.03 1019.51 1019.36 1019.41 1019.39 1019.69 1019.95 1019.89 1019.60 1019.68 1019.86 1020.31 1020.47 1020.41 1020.41 1020.42 1018.61 1016.84 1010.56 1009.92 1008.94 1008.92 1009.27 1009.78 1010.13 1010.51
1020.80 1020.80 1021.08 1021.30 1021.54 1021.89 1021.66 1021.83 1022.20 1022.15 1020.44 1020.12 1020.20 1020.37 1020.28 1020.26 1020.37 1020.34 1020.50 1020.41 1020.19 1019.51 1019.38 1019.43 1020.10 1020.10 1019.99 1020.22 1020.27 1020.42 1020.45 1020.56 1020.61 1020.45 1019.79 1018.12 1016.70 1011.07 1008.79 1008.39 1008.87 1009.14 1009.44 1009.90 1010.55
1021.21 1021.02 1021.10 1021.36 1021.70 1021.79 1021.97 1021.90 1022.30 1021.39 1020.27 1020.51 1020.35 1020.29 1020.47 1020.51 1020.46 1020.27 1019.95 1019.93 1019.71 1019.63 1019.32 1019.59 1019.80 1020.23 1020.40 1020.36 1020.51 1020.35 1020.13 1019.91 1019.92 1019.66 1018.63 1017.93 1016.52 1010.86 1008.62 1008.57 1008.74 1008.95 1009.38 1009.85 1010.36
1021.02 1021.17 1021.52 1021.81 1021.81 1021.70 1021.78 1022.04 1021.51 1020.77 1020.84 1020.94 1020.69 1020.43 1020.51 1020.75 1020.86 1020.59 1020.20 1019.54 1019.54 1019.43 1019.28 1019.33 1019.90 1020.18 1020.33 1020.16 1019.99 1020.10 1020.04 1019.92 1019.85 1019.56 1018.31 1017.78 1014.52 1009.77 1008.92 1008.75 1008.82 1009.07 1009.50 1009.83 1010.05
1021.22 1021.66 1021.79 1022.05 1021.85 1021.78 1021.92 1022.06 1020.75 1020.55 1020.68 1020.82 1020.75 1020.53 1020.69 1020.95 1021.15 1020.87 1020.48 1019.84 1019.43 1019.46 1019.42 1019.45 1019.86 1020.50 1020.83 1020.69 1020.76 1020.67 1020.38 1020.37 1020.19 1021.07 1019.11 1014.95 1012.76 1009.81 1008.07 1008.40 1008.75 1008.87 1009.29 1009.60 1010.02
1021.61 1021.80 1022.20 1022.15 1022.10 1021.92 1022.25 1021.63 1020.83 1020.43 1020.62 1020.85 1020.61 1020.68 1020.71 1020.80 1021.16 1021.07 1020.42 1020.07 1019.99 1019.88 1019.83 1019.93 1020.26 1020.66 1021.03 1021.09 1021.25 1020.92 1020.78 1020.71 1020.19 1019.31 1017.36 1013.92 1012.17 1009.31 1008.07 1008.10 1008.34 1008.69 1008.97 1009.45 1009.83
1021.72 1021.92 1022.63 1022.38 1022.43 1022.37 1022.23 1021.43 1020.65 1020.28 1020.29 1020.84 1020.56 1020.48 1020.42 1020.61 1020.65 1020.94 1020.53 1020.45 1020.48 1020.60 1020.42 1020.15 1020.60 1021.28 1021.34 1020.97 1020.36 1021.16 1020.63 1020.56 1020.12 1019.05 1017.42 1014.43 1009.86 1008.42 1008.02 1007.97 1008.47 1009.02 1009.49 1009.68 1009.89
1021.59 1022.26 1022.79 1022.54 1023.02 1022.36 1021.95 1021.33 1020.80 1020.65 1020.75 1020.81 1020.92 1020.66 1020.50 1020.65 1020.84 1021.03 1020.81 1020.52 1020.67 1020.53 1020.67 1020.95 1020.91 1020.87 1020.64 1021.01 1021.23 1020.92 1020.27 1019.95 1019.83 1019.14 1018.04 1016.26 1009.12 1007.98 1008.38 1008.67 1009.05 1009.36 1009.78 1009.74 1009.90
1021.59 1022.32 1022.89 1022.67 1022.23 1021.97 1021.88 1021.42 1020.91 1020.63 1020.55 1020.71 1020.68 1020.55 1020.47 1020.73 1021.20 1020.93 1020.85 1020.71 1021.08 1021.28 1020.66 1020.97 1021.49 1021.23 1020.78 1021.58 1021.46 1021.09 1020.80 1020.37 1020.03 1019.28 1017.09 1015.70 1008.88 1008.07 1008.60 1009.06 1009.36 1009.70 1009.90 1010.11 1010.22
1021.98 1022.28 1022.66 1022.49 1021.67 1021.26 1021.29 1020.85 1020.75 1020.39 1020.36 1020.28 1020.29 1020.73 1020.87 1020.96 1020.97 1021.12 1021.30 1021.17 1021.40 1021.48 1021.46 1021.09 1021.56 1021.24 1020.87 1020.54 1021.00 1020.97 1020.59 1020.56 1020.02 1018.93 1016.73 1012.89 1010.14 1006.28 1007.77 1008.12 1008.73 1009.36 1010.09 1010.31 1010.56
1021.51 1021.01 1020.69 1021.28 1020.99 1020.92 1020.69 1019.92 1020.04 1020.22 1020.27 1020.26 1020.17 1020.12 1020.53 1020.79 1020.79 1021.00 1021.11 1021.46 1021.86 1021.83 1022.00 1022.24 1022.09 1021.76 1020.79 1020.74 1020.85 1020.16 1019.76 1019.58 1019.24 1018.18 1016.95 1010.65 1011.66 1005.57 1007.38 1008.06 1008.33 1008.99 1009.69 1010.38 1010.85
1020.71 1020.42 1020.70 1020.41 1020.04 1020.25 1019.97 1018.58 1019.32 1019.85 1019.69 1019.65 1019.47 1019.53 1019.90 1019.78 1019.68 1019.97 1020.59 1021.28 1021.33 1022.20 1022.42 1022.77 1022.35 1022.47 1021.67 1021.18 1020.87 1019.60 1018.56 1018.27 1017.31 1016.50 1015.10 1012.95 1009.26 1009.06 1007.75 1008.49 1008.65 1009.64 1010.20 1010.49 1010.90
1019.95 1019.93 1019.92 1019.21 1019.38 1019.33 1018.16 1017.91 1018.09 1018.94 1018.54 1018.70 1019.02 1019.41 1019.47 1019.38 1019.71 1019.83 1020.33 1020.98 1021.24 1021.53 1022.14 1022.47 1022.63 1022.95 1021.44 1021.49 1021.08 1018.81 1015.91 1015.67 1014.78 1014.38 1013.49 1012.59 1008.33 1007.86 1008.14 1008.74 1009.13 1009.78 1010.23 1010.39 1010.98
Wind_Speed
10 11 12 12 12 12 11 12 12 11 11 12 12 12 12 12 5 2 6 6 8 12 10 5 2 2 2 3 1 1 5 5 3 5 2 1 2 3 1 7 3 4 5 3 4
9 9 10 11 11 11 11 11 11 11 11 12 13 12 12 9 1 8 2 10 10 9 3 3 3 1 4 3 2 5 4 3 0 2 2 2 4 4 5 7 8 9 8 2 4
8 9 9 11 12 12 11 10 10 10 11 11 12 12 13 3 3 3 9 11 9 6 1 1 2 1 2 1 2 3 4 1 1 3 3 4 5 4 8 11 14 10 5 3 3
8 9 9 9 9 10 10 10 10 10 11 11 12 13 10 3 2 2 12 10 7 3 2 2 1 2 2 4 0 5 3 2 0 1 2 5 4 8 15 13 2 5 3 6 8
8 9 9 10 10 11 11 12 11 11 11 12 13 14 3 1 3 5 11 8 4 2 5 2 2 2 2 2 2 5 2 3 3 6 7 8 13 14 17 18 12 9 10 13 11
8 9 10 11 12 13 13 13 12 11 12 11 11 11 1 0 2 5 9 5 8 5 5 4 3 2 4 1 2 2 5 8 5 4 5 8 9 3 2 4 3 8 10 9 9
7 8 10 11 13 13 14 15 13 13 12 8 6 2 2 4 2 4 7 4 4 4 3 4 2 0 3 3 0 1 6 6 1 3 3 9 10 12 9 4 8 10 10 11 11
8 8 9 11 14 15 15 16 15 12 5 1 2 2 4 0 1 6 6 2 4 3 3 3 2 5 2 2 2 2 3 4 2 5 3 5 11 2 3 4 9 11 11 13 15
8 8 10 11 13 16 18 17 7 2 2 2 1 2 3 1 3 3 5 4 3 2 4 4 2 3 2 3 3 1 4 3 3 3 3 2 14 3 1 7 18 18 19 15 13
9 9 8 11 14 18 19 8 4 3 3 1 3 2 2 3 3 4 3 4 2 1 0 2 2 2 2 4 4 3 4 3 6 2 3 10 26 28 16 15 19 20 16 13 10
8 8 8 8 13 18 9 2 2 1 8 3 3 3 2 4 1 4 3 2 1 1 2 3 4 4 3 3 3 1 2 8 5 1 7 7 19 27 21 16 18 15 10 8 6
7 7 6 6 11 13 3 5 4 3 4 3 1 1 1 2 1 3 5 1 1 3 1 4 4 2 6 3 1 2 5 6 7 1 6 9 25 26 9 3 4 4 4 5 3
7 7 4 3 7 4 4 2 1 0 4 1 2 1 2 3 1 2 4 1 1 4 2 4 3 4 1 2 3 5 6 3 5 9 5 13 12 6 3 4 3 4 3 3 5
6 6 3 2 1 1 2 1 0 1 2 2 1 2 1 1 0 2 2 1 2 2 3 1 3 3 3 3 4 5 1 2 6 8 5 6 7 11 1 7 7 7 8 8 8
7 1 6 5 3 1 2 3 2 3 4 3 1 1 2 1 1 2 2 2 3 4 3 3 4 4 4 1 4 2 2 3 3 1 4 3 3 8 2 2 2 8 11 10 9
9 10 8 3 2 1 3 2 1 2 8 3 1 1 1 1 2 1 1 3 2 2 0 0 0 3 0 2 2 3 3 2 2 2 4 2 2 7 4 3 2 2 7 10 8
11 9 2 2 1 3 0 1 3 5 3 2 2 2 2 1 1 1 1 2 4 1 3 3 3 2 2 3 3 3 3 3 3 2 3 2 5 13 6 6 4 4 5 8 6
8 6 4 2 1 2 2 2 4 1 2 1 2 1 1 3 1 3 1 4 4 1 1 4 4 6 5 3 1 4 2 2 6 4 5 1 9 6 2 2 6 8 9 12 12
9 1 2 1 2 1 1 3 4 5 4 3 2 2 0 1 2 2 3 3 1 8 5 3 2 1 1 0 2 6 4 3 3 2 3 4 7 16 5 10 12 13 11 9 6
0 2 1 4 4 1 2 6 4 3 4 1 4 4 3 3 2 1 2 2 1 3 1 1 4 1 2 2 3 3 6 2 1 5 7 6 7 11 5 7 5 3 5 6 6
2 2 1 3 1 3 4 6 6 5 7 5 2 4 5 3 5 4 3 2 1 2 1 3 2 3 2 8 7 5 4 3 2 3 5 7 6 7 8 4 5 2 5 8 8
2 3 1 1 3 2 4 5 2 4 3 3 1 5 6 6 4 3 4 3 4 6 5 2 0 4 5 2 3 2 2 7 5 5 4 4 15 4 6 4 3 6 9 10 11
2 1 1 1 7 8 2 4 4 5 5 6 6 8 3 6 4 6 5 3 3 3 5 6 2 4 4 3 1 4 4 4 2 1 9 8 12 4 4 4 6 9 10 12 14
2 3 3 2 1 6 6 6 6 5 4 6 3 4 3 4 5 2 4 2 3 3 2 5 5 8 9 6 3 6 5 8 9 5 10 19 28 28 27 22 16 8 8 10 12
4 5 3 5 9 9 8 5 6 8 6 7 4 10 9 7 4 5 5 2 3 6 4 4 7 6 13 13 12 17 18 18 18 21 16 30 30 36 32 24 24 19 13 10 11
3 4 2 1 7 15 19 16 18 5 9 6 11 11 14 12 9 5 4 5 7 7 6 7 3 2 5 8 15 21 19 20 24 24 27 33 43 30 31 23 13 5 8 8 11
4 1 3 6 8 10 17 18 11 16 13 16 13 13 12 14 13 11 6 4 5 8 10 8 5 5 10 2 5 12 16 24 13 13 20 24 37 28 26 17 12 7 10 12 10
Wind_Direction
9 7 10 14 8 5 1 359 355 352 341 340 340 344 341 337 313 55 45 323 312 319 325 302 290 106 137 106 121 224 234 248 236 196 118 139 288 164 299 269 247 221 245 35 9
0 359 1 3 3 360 360 357 349 343 337 339 340 340 334 330 158 64 351 325 322 333 321 24 111 77 116 128 145 229 246 236 107 203 240 219 261 293 269 231 239 235 219 182 336
355 353 352 356 356 355 352 347 342 337 337 338 336 334 327 294 203 40 339 337 336 332 176 69 109 26 119 199 139 167 262 57 219 256 269 272 264 249 258 257 246 253 233 215 285
347 347 347 345 346 345 345 339 338 336 337 338 336 331 325 204 314 6 338 340 354 10 126 96 134 139 151 189 87 248 246 246 29 154 261 259 296 263 243 252 320 250 223 267 265
339 341 345 342 336 337 341 336 336 334 336 338 339 337 330 60 62 349 337 349 5 17 43 95 147 144 191 164 210 245 303 262 273 271 264 272 261 267 264 261 254 242 259 267 254
321 331 336 337 335 333 333 334 331 330 328 329 335 332 279 92 345 346 347 4 22 30 37 21 97 94 97 113 239 358 293 284 295 298 287 289 276 298 201 59 203 233 238 245 229
306 315 326 330 330 330 327 326 323 321 318 315 330 346 76 78 360 10 19 23 1 15 52 28 39 211 143 152 56 285 293 276 265 341 305 304 262 229 259 235 258 253 239 234 240
304 310 317 323 327 325 324 324 318 315 330 4 18 281 76 123 33 27 6 50 26 22 63 29 40 90 12 113 184 247 241 289 85 338 38 337 279 308 150 206 241 240 243 256 271
305 314 318 324 325 322 324 326 336 27 36 52 99 359 91 271 50 353 13 17 334 32 43 63 46 39 178 223 224 204 269 255 273 46 318 275 287 262 165 251 274 273 270 272 284
301 306 314 323 329 327 331 340 21 108 51 93 107 184 68 25 345 344 11 358 29 60 211 44 57 232 191 226 249 203 266 250 266 61 262 263 267 284 273 268 275 278 280 275 265
278 293 307 323 332 336 347 317 331 127 47 51 359 346 357 336 287 26 9 316 208 115 244 46 250 247 349 352 9 9 275 277 273 349 294 253 275 279 295 282 270 273 259 238 231
259 270 283 325 340 343 12 49 55 1 307 35 27 345 351 330 302 35 346 243 216 212 189 209 238 76 111 95 359 296 301 279 283 295 307 310 291 282 302 255 265 304 200 187 191
288 279 262 327 350 34 50 61 11 92 274 27 59 44 356 325 102 327 346 116 132 178 203 254 76 142 180 170 249 240 248 290 288 321 257 306 272 272 193 266 234 211 224 214 225
318 294 221 296 160 47 74 165 149 207 317 153 127 86 93 15 277 338 348 312 139 217 185 259 112 189 201 238 203 281 50 302 309 337 297 6 287 289 292 277 228 207 209 218 223
4 14 108 21 127 143 100 160 167 237 298 50 106 149 123 110 6 85 333 241 186 152 210 97 174 195 227 256 182 353 1 312 307 245 317 105 227 274 310 236 221 206 212 220 225
358 126 130 79 79 31 132 133 259 250 243 116 81 342 184 106 125 299 313 31 2 142 163 151 131 228 7 114 167 116 268 249 138 170 241 96 273 272 227 160 170 194 215 225 210
343 157 117 127 100 113 35 237 59 222 5 357 61 31 352 10 99 17 125 209 242 216 213 176 192 149 213 188 158 201 276 292 266 230 299 102 262 255 255 210 226 205 196 193 206
327 118 34 48 106 123 213 54 230 59 254 298 282 341 359 9 67 328 237 247 205 206 228 251 238 191 167 251 160 171 203 249 278 288 321 161 241 247 252 292 246 245 257 264 261
120 48 54 23 13 306 91 216 236 189 162 194 167 23 24 91 284 312 248 256 224 198 220 193 219 126 317 97 280 139 201 82 106 98 267 237 262 274 270 244 241 252 241 247 250
98 124 140 344 326 57 98 234 234 181 145 165 188 178 227 197 206 234 206 153 196 201 270 152 266 161 130 177 78 272 133 161 172 275 272 230 260 251 249 223 191 200 212 233 239
245 214 85 359 303 75 217 226 222 199 158 195 254 202 234 215 198 208 209 160 213 141 241 158 238 112 177 208 185 157 202 193 307 234 270 302 249 214 235 198 197 237 266 259 256
215 220 64 299 150 191 203 202 218 178 158 189 235 225 203 190 205 240 261 269 197 172 153 77 38 250 229 76 353 302 255 193 231 199 249 302 271 188 247 256 265 279 279 272 286
212 167 93 280 208 211 167 267 250 171 189 173 225 222 187 194 232 217 204 179 196 232 173 163 104 299 208 149 80 243 215 214 110 273 219 260 260 116 150 226 246 256 265 282 294
165 192 213 196 275 215 202 226 233 199 208 182 210 128 129 207 219 259 248 195 173 192 169 122 178 202 255 302 147 234 216 226 225 251 282 240 288 269 287 289 297 291 257 286 304
188 226 194 201 217 217 213 188 195 204 220 201 221 214 184 216 210 215 230 196 206 203 179 148 224 227 252 266 252 257 254 245 233 239 247 274 278 279 279 299 306 309 317 311 303
227 178 199 207 221 201 215 228 223 214 178 217 228 195 207 225 217 244 206 210 221 180 166 185 219 120 267 257 248 261 258 247 243 248 253 260 264 269 290 293 294 291 290 296 299
192 227 233 194 199 208 219 228 227 215 230 233 213 220 216 226 241 259 258 212 207 173 189 175 167 161 269 20 306 267 225 224 215 226 235 250 257 283 288 290 303 294 287 296 289